Regional Weather Roundup
Issued by NWS

Home | Current Version | Previous Version | Graphics & Text | Print | Product List | Glossary On
Versions: 1 2 3 4 5 6 7 8 9 10 11 12 13 14 15 16 17 18 19 20 21 22 23 24 25 26 27 28 29 30 31 32 33 34 35 36 37 38 39 40 41 42 43 44 45 46 47 48 49 50
000
ASUS45 KCYS 180110
RWRWY

WYOMING REGIONAL WEATHER ROUNDUP
NATIONAL WEATHER SERVICE CHEYENNE WY
600 PM MST SUN DEC 17 2017

NOTE:  "FAIR" INDICATES FEW OR NO CLOUDS BELOW 12,000 FEET
WITH NO SIGNIFICANT WEATHER AND/OR OBSTRUCTIONS TO VISIBILITY.

WYZ001-180200-
YELLOWSTONE NATIONAL PARK

CITY           SKY/WX    TMP DP  RH WIND       PRES   REMARKS
LK YELLOWSTONE   N/A     13  10  88 CALM      30.08S
W YELLOWSTONE  NOT AVBL

$$
WYZ002>013-054>058-071-098>099-180200-
NORTHERN WYOMING

CITY           SKY/WX    TMP DP  RH WIND       PRES   REMARKS
JACKSON        FLURRIES  20  16  84 N7        30.12R WCI  11
CODY           FAIR      32  17  54 NW7G25    29.88S WCI  26
GREYBULL       FAIR      19  17  92 CALM      29.94S
WORLAND        FAIR      15  14  95 S5        29.93S WCI   8
SHERIDAN       FAIR      17  14  88 CALM      29.85S
BUFFALO        FAIR      27  14  58 S6        29.85R WCI  20
GILLETTE       FAIR      21  14  74 SW7       29.85R WCI  12
HULETT         MOCLDY    30  21  69 SW9       29.85R WCI  22
NEWCASTLE      FAIR      23  19  86 N9        29.87R WCI  13

$$
WYZ014>020-022>026-101>103-180200-
CENTRAL WYOMING

CITY           SKY/WX    TMP DP  RH WIND       PRES   REMARKS
BIG PINEY      MOCLDY    24  14  65 N10       30.03S WCI  14
PINEDALE       FAIR      19  12  73 NW18      30.03R WCI   4
DUBOIS         FAIR      27  18  69 W36G47    29.92S HAZE    WCI   9
LANDER         FAIR      25  15  66 CALM      29.91R
RIVERTON       FAIR      17  15  92 NW10      29.92R WCI   5
CASPER         FAIR      26  14  60 W13       29.91R WCI  15
DOUGLAS        FAIR      30  16  56 NW13      29.88R WCI  20

$$
WYZ021-027>030-104>119-180200-
SOUTHERN WYOMING

CITY           SKY/WX    TMP DP  RH WIND       PRES   REMARKS
EVANSTON       MOCLDY    22  15  75 SW12      30.12R WCI  10
FORT BRIDGER   FAIR      25  17  71 W14       30.11R WCI  13
ROCK SPRINGS   FAIR      23  13  65 W23G33    30.04R WCI   7
DIXON          CLOUDY    26  17  71 CALM      30.09R
RAWLINS        FAIR      26  14  60 W18G30    30.01R WCI  13
SARATOGA       FAIR      28  14  54 S10       30.02R WCI  19
LARAMIE        FAIR      26  13  57 SW16      29.91R WCI  14
CHEYENNE       FAIR      31  17  56 W9        29.90R WCI  23
TORRINGTON     FAIR      34  14  43 NW7       29.87R WCI  28
PINE BLUFFS    FAIR      28  23  80 MISG      29.92R

$$



USA.gov is the U.S. government's official web portal to all federal, state and local government web resources and services.